Find Starlink 6328

NORAD ID: 56523 Int'l Des: 2023-065 Owner: SPXS Country: US Constellation: starlink operational
LEOCIRCULAR

当前视图

正在加载3D地球...

About Starlink 6328

Starlink 6328 (NORAD 56523) is a starlink constellation satellite (v1.5) launched May 14, 2023 by SPXS of US. It operates in LEO, CIRCULAR orbit with a mass of 305.00 kg.

即将过境

Passes for default location (London). Set your location on the main map for personalized predictions.

高度历史

Loading altitude history...

两行轨道根数

1 56523U 23065W 26264.97197899 .00000295 00000-0 20237-4 0 9990
2 56523 43.0039 184.3994 0001585 271.9547 88.1124 15.27578412186612
Epoch: Sep 21, 2026 • Age: 27 hours

当前状态

高度 484.6 km
远地点 / 近地点 N/A
速度 7.62 km/s
星下点 -11.69°S, 134.5°E
发射日期 May 14, 2023
运行时间 3.3 years
类型 internet

技术详情

分类 Payload
质量 305.00 kg
干质量 290.00 kg
长度 0.20 m
跨度 9.00 m
形状 ? Box + pan
制造商 SPXS
平台类型 Starlink
阶段状态 In Orbit
所有者/国家 SPXS/US

Most Searched